Time,TemperatureF,DewpointF,PressureIn,WindDirection,WindDirectionDegrees,WindSpeedMPH,WindSpeedGustMPH,Humidity,HourlyPrecipIn,Conditions,Clouds,dailyrainin,SolarRadiationWatts/m^2,SoftwareType,DateUTC
2013-03-17 00:03:00,41.0,34.0,-100.00,ENE,61,3.0,8.0,77,0.00,,,0.00,0.000000,,2013-03-17 04:03:00,
2013-03-17 00:43:00,40.0,34.0,-100.00,ENE,72,3.0,8.0,78,0.00,,,0.00,0.000000,,2013-03-17 04:43:00,
2013-03-17 00:53:00,40.0,34.0,-100.00,ENE,72,3.0,8.0,78,0.00,,,0.00,0.000000,,2013-03-17 04:53:00,
2013-03-17 01:02:00,40.0,34.0,-100.00,ENE,72,3.0,8.0,78,0.00,,,0.00,0.000000,,2013-03-17 05:02:00,
2013-03-17 01:42:00,39.0,33.0,-100.00,ENE,73,4.0,12.0,79,0.00,,,0.00,0.000000,,2013-03-17 05:42:00,
2013-03-17 01:52:00,39.0,33.0,-100.00,ENE,73,4.0,12.0,79,0.00,,,0.00,0.000000,,2013-03-17 05:52:00,
2013-03-17 02:02:00,39.0,33.0,-100.00,ENE,73,4.0,12.0,79,0.00,,,0.00,0.000000,,2013-03-17 06:02:00,
2013-03-17 02:42:00,38.0,33.0,-100.00,ENE,72,6.0,15.0,81,0.00,,,0.00,0.000000,,2013-03-17 06:42:00,
2013-03-17 02:52:00,38.0,33.0,-100.00,ENE,72,6.0,15.0,81,0.00,,,0.00,0.000000,,2013-03-17 06:52:00,
2013-03-17 03:02:00,38.0,33.0,-100.00,ENE,72,6.0,15.0,81,0.00,,,0.00,0.000000,,2013-03-17 07:02:00,
2013-03-17 03:42:00,37.0,33.0,-100.00,ENE,66,3.0,13.0,86,0.00,,,0.00,0.000000,,2013-03-17 07:42:00,
2013-03-17 03:52:00,37.0,33.0,-100.00,ENE,66,3.0,13.0,86,0.00,,,0.00,0.000000,,2013-03-17 07:52:00,
2013-03-17 04:03:00,37.0,33.0,-100.00,ENE,66,3.0,13.0,86,0.00,,,0.00,0.000000,,2013-03-17 08:03:00,
2013-03-17 04:42:00,36.0,34.0,-100.00,ENE,67,5.0,13.0,91,0.00,,,0.00,0.000000,,2013-03-17 08:42:00,
2013-03-17 04:52:00,36.0,34.0,-100.00,ENE,67,5.0,13.0,91,0.00,,,0.00,0.000000,,2013-03-17 08:52:00,
2013-03-17 05:03:00,36.0,34.0,-100.00,ENE,67,5.0,13.0,91,0.00,,,0.00,0.000000,,2013-03-17 09:03:00,
2013-03-17 05:43:00,35.0,33.0,-100.00,East,85,1.0,11.0,94,0.06,,,0.06,0.000000,,2013-03-17 09:43:00,
2013-03-17 05:53:00,35.0,33.0,-100.00,East,85,1.0,11.0,94,0.06,,,0.06,0.000000,,2013-03-17 09:53:00,
2013-03-17 06:03:00,35.0,33.0,-100.00,East,85,1.0,11.0,94,0.06,,,0.06,0.000000,,2013-03-17 10:03:00,
2013-03-17 06:42:00,33.0,32.0,-100.00,ENE,68,3.0,8.0,95,0.05,,,0.11,0.000000,,2013-03-17 10:42:00,
2013-03-17 06:52:00,33.0,32.0,-100.00,ENE,68,3.0,8.0,95,0.05,,,0.11,0.000000,,2013-03-17 10:52:00,
2013-03-17 07:02:00,33.0,32.0,-100.00,ENE,68,3.0,8.0,95,0.05,,,0.11,0.000000,,2013-03-17 11:02:00,
2013-03-17 07:43:00,33.0,32.0,-100.00,East,80,3.0,12.0,96,0.00,,,0.11,0.000000,,2013-03-17 11:43:00,
2013-03-17 07:52:00,33.0,32.0,-100.00,East,80,3.0,12.0,96,0.00,,,0.11,0.000000,,2013-03-17 11:52:00,
2013-03-17 08:02:00,33.0,32.0,-100.00,East,80,3.0,12.0,96,0.00,,,0.11,0.000000,,2013-03-17 12:02:00,
2013-03-17 08:33:00,32.0,31.0,-100.00,ENE,74,3.0,10.0,96,0.00,,,0.11,0.000000,,2013-03-17 12:33:00,
2013-03-17 08:43:00,32.0,31.0,-100.00,ENE,74,3.0,10.0,96,0.00,,,0.11,0.000000,,2013-03-17 12:43:00,
2013-03-17 08:52:00,32.0,31.0,-100.00,ENE,74,3.0,10.0,96,0.00,,,0.11,0.000000,,2013-03-17 12:52:00,
2013-03-17 09:02:00,32.0,31.0,-100.00,ENE,74,3.0,10.0,96,0.00,,,0.11,0.000000,,2013-03-17 13:02:00,
2013-03-17 09:43:00,32.0,31.0,-100.00,ENE,74,4.0,13.0,96,0.00,,,0.11,5.000000,,2013-03-17 13:43:00,
2013-03-17 09:52:00,32.0,31.0,-100.00,ENE,74,4.0,13.0,96,0.00,,,0.11,5.000000,,2013-03-17 13:52:00,
2013-03-17 10:02:00,32.0,31.0,-100.00,ENE,74,4.0,13.0,96,0.00,,,0.11,5.000000,,2013-03-17 14:02:00,
2013-03-17 10:33:00,32.0,31.0,-100.00,ESE,107,4.0,10.0,96,0.00,,,-99.99,9.000000,,2013-03-17 14:33:00,
2013-03-17 10:43:00,32.0,31.0,-100.00,ESE,107,4.0,10.0,96,0.00,,,-99.99,9.000000,,2013-03-17 14:43:00,
2013-03-17 10:53:00,32.0,31.0,-100.00,ESE,107,4.0,10.0,96,0.00,,,-99.99,9.000000,,2013-03-17 14:53:00,
2013-03-17 11:02:00,32.0,31.0,-100.00,ESE,107,4.0,10.0,96,0.00,,,-99.99,9.000000,,2013-03-17 15:02:00,
2013-03-17 11:33:00,32.0,31.0,-100.00,ESE,110,3.0,9.0,95,0.00,,,0.11,18.000000,,2013-03-17 15:33:00,
2013-03-17 11:43:00,32.0,31.0,-100.00,ESE,110,3.0,9.0,95,0.00,,,0.11,18.000000,,2013-03-17 15:43:00,
2013-03-17 11:53:00,32.0,31.0,-100.00,ESE,110,3.0,9.0,95,0.00,,,0.11,18.000000,,2013-03-17 15:53:00,
2013-03-17 12:03:00,32.0,31.0,-100.00,ESE,110,3.0,9.0,95,0.00,,,0.11,18.000000,,2013-03-17 16:03:00,
2013-03-17 12:33:00,32.0,31.0,-100.00,ESE,104,4.0,10.0,95,0.00,,,0.11,19.000000,,2013-03-17 16:33:00,
2013-03-17 12:43:00,32.0,31.0,-100.00,ESE,104,4.0,10.0,95,0.00,,,0.11,19.000000,,2013-03-17 16:43:00,
2013-03-17 12:52:00,32.0,31.0,-100.00,ESE,104,4.0,10.0,95,0.00,,,0.11,19.000000,,2013-03-17 16:52:00,
2013-03-17 13:02:00,32.0,31.0,-100.00,ESE,104,4.0,10.0,95,0.00,,,0.11,19.000000,,2013-03-17 17:02:00,
2013-03-17 13:42:00,33.0,31.0,-100.00,East,94,3.0,9.0,94,0.00,,,0.11,22.000000,,2013-03-17 17:42:00,
2013-03-17 13:53:00,33.0,31.0,-100.00,East,94,3.0,9.0,94,0.00,,,0.11,22.000000,,2013-03-17 17:53:00,
2013-03-17 14:02:00,33.0,31.0,-100.00,East,94,3.0,9.0,94,0.00,,,0.11,22.000000,,2013-03-17 18:02:00,
2013-03-17 14:42:00,33.0,31.0,-100.00,East,101,4.0,10.0,94,0.00,,,0.11,29.000000,,2013-03-17 18:42:00,
2013-03-17 14:52:00,33.0,31.0,-100.00,East,101,4.0,10.0,94,0.00,,,0.11,29.000000,,2013-03-17 18:52:00,
2013-03-17 15:02:00,33.0,31.0,-100.00,East,101,4.0,10.0,94,0.00,,,0.11,29.000000,,2013-03-17 19:02:00,
2013-03-17 15:42:00,34.0,32.0,-100.00,ESE,110,3.0,11.0,93,0.05,,,0.16,43.000000,,2013-03-17 19:42:00,
2013-03-17 15:53:00,34.0,32.0,-100.00,ESE,110,3.0,11.0,93,0.05,,,0.16,43.000000,,2013-03-17 19:53:00,
2013-03-17 16:02:00,34.0,32.0,-100.00,ESE,110,3.0,11.0,93,0.05,,,0.16,43.000000,,2013-03-17 20:02:00,
2013-03-17 16:33:00,34.0,32.0,-100.00,ESE,117,5.0,14.0,94,0.04,,,0.20,151.000000,,2013-03-17 20:33:00,
2013-03-17 16:43:00,34.0,32.0,-100.00,ESE,117,5.0,14.0,94,0.04,,,0.20,151.000000,,2013-03-17 20:43:00,
2013-03-17 16:52:00,34.0,32.0,-100.00,ESE,117,5.0,14.0,94,0.04,,,0.20,151.000000,,2013-03-17 20:52:00,
2013-03-17 17:03:00,34.0,32.0,-100.00,ESE,117,5.0,14.0,94,0.04,,,0.20,151.000000,,2013-03-17 21:03:00,
2013-03-17 17:33:00,34.0,32.0,-100.00,East,98,4.0,14.0,93,0.11,,,0.31,151.000000,,2013-03-17 21:33:00,
2013-03-17 17:43:00,34.0,32.0,-100.00,East,98,4.0,14.0,93,0.11,,,0.31,151.000000,,2013-03-17 21:43:00,
2013-03-17 17:52:00,34.0,32.0,-100.00,East,98,4.0,14.0,93,0.11,,,0.31,151.000000,,2013-03-17 21:52:00,
2013-03-17 18:03:00,34.0,32.0,-100.00,East,98,4.0,14.0,93,0.11,,,0.31,151.000000,,2013-03-17 22:03:00,
2013-03-17 18:42:00,34.0,32.0,-100.00,ESE,110,4.0,13.0,92,0.06,,,0.37,57.000000,,2013-03-17 22:42:00,
2013-03-17 18:53:00,34.0,32.0,-100.00,ESE,110,4.0,13.0,92,0.06,,,0.37,57.000000,,2013-03-17 22:53:00,
2013-03-17 19:02:00,34.0,32.0,-100.00,ESE,110,4.0,13.0,92,0.06,,,0.37,57.000000,,2013-03-17 23:02:00,
2013-03-17 19:33:00,34.0,32.0,-100.00,ESE,109,4.0,13.0,91,0.02,,,0.39,19.000000,,2013-03-17 23:33:00,
2013-03-17 19:43:00,34.0,32.0,-100.00,ESE,109,4.0,13.0,91,0.02,,,0.39,19.000000,,2013-03-17 23:43:00,
2013-03-17 19:53:00,34.0,32.0,-100.00,ESE,109,4.0,13.0,91,0.02,,,0.39,19.000000,,2013-03-17 23:53:00,
2013-03-17 20:03:00,34.0,32.0,-100.00,ESE,109,4.0,13.0,91,0.02,,,0.39,19.000000,,2013-03-18 00:03:00,
2013-03-17 21:33:00,33.0,32.0,-100.00,East,97,4.0,11.0,96,-99.99,,,0.52,0.000000,,2013-03-18 01:33:00,
2013-03-17 21:42:00,33.0,32.0,-100.00,East,97,4.0,11.0,96,-99.99,,,0.52,0.000000,,2013-03-18 01:42:00,
2013-03-17 21:52:00,33.0,32.0,-100.00,East,97,4.0,11.0,96,-99.99,,,0.52,0.000000,,2013-03-18 01:52:00,
2013-03-17 22:02:00,33.0,32.0,-100.00,East,97,4.0,11.0,96,-99.99,,,0.52,0.000000,,2013-03-18 02:02:00,
2013-03-17 22:42:00,34.0,33.0,-100.00,ESE,121,5.0,13.0,97,0.11,,,0.63,0.000000,,2013-03-18 02:42:00,
2013-03-17 22:52:00,34.0,33.0,-100.00,ESE,121,5.0,13.0,97,0.11,,,0.63,0.000000,,2013-03-18 02:52:00,
2013-03-17 23:03:00,34.0,33.0,-100.00,ESE,121,5.0,13.0,97,0.11,,,0.63,0.000000,,2013-03-18 03:03:00,
2013-03-17 23:42:00,34.0,33.0,-100.00,East,100,5.0,14.0,97,0.06,,,0.69,0.000000,,2013-03-18 03:42:00,
2013-03-17 23:53:00,34.0,33.0,-100.00,East,100,5.0,14.0,97,0.06,,,0.69,0.000000,,2013-03-18 03:53:00,